Regional Weather Roundup
Issued by NWS

Current Version | Previous Version | Text Only | Print | Product List | Glossary On
Versions: 1 2 3 4 5 6 7 8 9 10 11 12 13 14 15 16 17 18 19 20 21 22 23 24 25 26 27 28 29 30 31 32 33 34 35 36 37 38 39 40 41 42 43 44 45 46 47 48 49 50
000
ASUS42 KTAE 301215
RWRTAE
RWRTAE
North Florida/South Alabama/Southwest Georgia Weather Roundup
National Weather Service Tallahassee Florida
800 AM EDT FRI SEP 30 2022

Note: "fair" indicates few or no clouds below 12,000 feet with no
significant weather and/or obstructions to visibility.

!FLZ017-115-028-034-025-301300
...North Florida...

CITY           SKY/WX    TMP DP  RH WIND       PRES   REMARKS
TALL INTL ARPT CLEAR     60  49  66 N6        29.89R
FSU LOVE BLDG    N/A     61  50  67 N6          N/A
APALACHICOLA   CLEAR     59  52  77 N5        29.90R
PERRY          NOT AVBL
CROSS CITY     CLEAR     58  53  83 NW7       29.84R
JACKSONVILLE   CLOUDY    65  55  70 NW12G23   29.74R
$$

!FLZ112-006-005-002-011-301300
...Florida Panhandle...

CITY           SKY/WX    TMP DP  RH WIND       PRES   REMARKS
MARIANNA       CLEAR     58  49  72 N3        29.91R
BONIFAY        NOT AVBL
PANAMA CITY NW FAIR      57  50  77 NW8       29.92R
TYNDALL AFB    CLEAR     62  50  65 N7        29.91R
TYND DRONE APT FAIR      62  51  66 N8        29.88R
DE FUNIAK SPR  CLOUDY    57  48  72 CALM      29.95S
EGLIN AFB      CLOUDY    58  48  69 N8        29.92R
DESTIN         MOCLDY    65  50  58 N10       29.94R
HURLBURT       PTCLDY    56  47  74 N9        29.94R
CRESTVIEW      CLOUDY    59  49  69 N6        29.97R
PENSACOLA      PTCLDY    60  49  66 N8        29.96R
$$

!ALZ063-066-301300
...South Alabama...

CITY           SKY/WX    TMP DP  RH WIND       PRES   REMARKS
DOTHAN         CLEAR     58  47  66 N7        29.96S
OZARK CAIRNS   CLEAR     58  47  65 N8        29.93R
FT RUCKER HELI CLEAR     57  48  70 N7        29.94R
RUCKER HELI 3  FAIR      58  48  70 N8        29.94R
RUCKER HELI 2  FAIR      58  48  69 N9        29.91S
FLORALA APT    NOT AVBL
ANDALUSIA      CLEAR     60  47  61 N5        29.97R
TROY           NOT AVBL
EUFALA         CLOUDY    61  49  64 N5        29.96R
MOBILE         MOCLDY    58  45  62 N6        30.00R
$$

!GAZ120>161-301300
...Southwest and South Central Georgia...

CITY           SKY/WX    TMP DP  RH WIND       PRES   REMARKS
THOMASVILLE    FAIR      55  48  76 NW6       29.89R
BAINBRIDGE     CLEAR     58  49  71 N8        29.91R
MOODY AFB      PTCLDY    62  50  65 N12       29.83R
VALDOSTA       CLEAR     63  52  67 N10       29.85R
MOULTRIE       CLEAR     59  50  72 N5        29.89R
BLAKELY        PTCLDY    55  46  71 CALM      29.93R
ALBANY         CLOUDY    63  48  58 N6        29.92R
TIFTON         NOT AVBL
FITZGERALD     CLOUDY    64  50  60 N9G18     29.88R
CORDELE        CLOUDY    63  47  55 N10G17    29.92R
AMERICUS       NOT AVBL
HOMERVILLE     NOT AVBL
$$

!GMZ750-755-770-775-301300
...Coastal and Buoy Obs...

STATION/POSITION TIME  TEMP    WIND        PRES    VSBY  WAVE
                       AIR SEA DIR/SP/G                  HT/PER
                 (UTC) (F)     (DEG/KT/KT) (MB)    (MI)  (FT/S)
KEATON BEACH     1200   60     340/  3/  6 1010.9R
CEDAR KEY        1200   63     340/  7/ 12 1010.6R
C TOWER          1200   66                 1012.2R
APALACHICOLA BUO 1150   72 81  360/ 10/ 14 1010.1R         5/ 7
PANAMA CITY BUOY 1150   71      30/ 10/ 14 1013.2R         4/ 6
MOBILE BUOY      1150   75 82   60/ 12/ 16 1013.7R         6/ 7
ORANGE BCH AL BU 1150   68 82   30/ 12/ 16 1014.2R         4/ 6
$$



USA.gov is the U.S. government's official web portal to all federal, state and local government web resources and services.